Time,TemperatureF,DewpointF,PressureIn,WindDirection,WindDirectionDegrees,WindSpeedMPH,WindSpeedGustMPH,Humidity,HourlyPrecipIn,Conditions,Clouds,dailyrainin,SoftwareType,DateUTC
2013-06-11 09:50:00,58.3,55.4,29.70,WNW,296,0.0,0.0,90,0.00,,,0.54,Wunderground v.1.15,2013-06-11 13:50:00,
2013-06-11 09:55:00,58.3,55.4,29.70,WNW,296,0.0,0.0,90,0.00,,,0.54,Wunderground v.1.15,2013-06-11 13:55:00,
2013-06-11 10:00:00,58.3,55.4,29.69,WNW,286,0.0,0.0,90,0.00,,,0.54,Wunderground v.1.15,2013-06-11 14:00:00,
2013-06-11 10:05:00,58.3,55.4,29.69,WNW,286,0.0,0.0,90,0.00,,,0.54,Wunderground v.1.15,2013-06-11 14:05:00,
2013-06-11 10:15:00,58.5,55.6,29.69,WNW,283,0.0,0.0,90,0.00,,,0.54,Wunderground v.1.15,2013-06-11 14:15:00,
2013-06-11 10:20:00,58.5,55.6,29.69,WNW,283,1.0,1.0,90,0.00,,,0.54,Wunderground v.1.15,2013-06-11 14:20:00,
2013-06-11 10:30:00,58.6,55.7,29.69,WNW,283,0.0,2.0,90,0.00,,,0.54,Wunderground v.1.15,2013-06-11 14:30:00,
2013-06-11 10:40:00,58.2,55.3,29.69,WNW,283,1.0,2.0,90,0.00,,,0.54,Wunderground v.1.15,2013-06-11 14:40:00,
2013-06-11 10:45:00,58.2,55.3,29.70,WNW,283,1.0,2.0,90,0.00,,,0.54,Wunderground v.1.15,2013-06-11 14:45:00,
2013-06-11 10:50:00,58.2,55.3,29.70,WNW,283,1.0,4.0,90,0.00,,,0.54,Wunderground v.1.15,2013-06-11 14:50:00,
2013-06-11 10:55:00,58.4,55.5,29.70,WNW,283,0.0,4.0,90,0.00,,,0.54,Wunderground v.1.15,2013-06-11 14:55:00,
2013-06-11 11:00:00,58.5,55.6,29.70,WNW,283,0.0,0.0,90,0.00,,,0.54,Wunderground v.1.15,2013-06-11 15:00:00,
2013-06-11 11:05:00,58.6,55.7,29.70,WNW,283,0.0,0.0,90,0.00,,,0.54,Wunderground v.1.15,2013-06-11 15:05:00,
2013-06-11 11:10:00,58.6,55.7,29.70,WNW,282,0.0,1.0,90,0.00,,,0.54,Wunderground v.1.15,2013-06-11 15:10:00,
2013-06-11 11:15:00,58.7,55.8,29.69,WNW,283,1.0,1.0,90,0.00,,,0.54,Wunderground v.1.15,2013-06-11 15:15:00,
2013-06-11 11:20:00,58.7,55.8,29.69,WNW,282,1.0,1.0,90,0.00,,,0.54,Wunderground v.1.15,2013-06-11 15:20:00,
2013-06-11 11:25:00,58.8,55.9,29.70,WNW,282,0.0,2.0,90,0.00,,,0.54,Wunderground v.1.15,2013-06-11 15:25:00,
2013-06-11 11:35:00,58.9,56.0,29.70,WNW,282,1.0,2.0,90,0.00,,,0.54,Wunderground v.1.15,2013-06-11 15:35:00,
2013-06-11 11:45:00,59.2,56.3,29.69,West,279,0.0,0.0,90,0.00,,,0.54,Wunderground v.1.15,2013-06-11 15:45:00,
2013-06-11 11:55:00,59.7,56.8,29.69,West,279,0.0,0.0,90,0.00,,,0.54,Wunderground v.1.15,2013-06-11 15:55:00,
2013-06-11 12:00:00,60.0,57.1,29.69,West,279,0.0,0.0,90,0.00,,,0.54,Wunderground v.1.15,2013-06-11 16:00:00,
2013-06-11 12:05:00,59.9,57.0,29.69,West,279,1.0,1.0,90,0.00,,,0.54,Wunderground v.1.15,2013-06-11 16:05:00,
2013-06-11 12:15:00,60.3,57.4,29.69,West,280,0.0,1.0,90,0.00,,,0.54,Wunderground v.1.15,2013-06-11 16:15:00,
2013-06-11 12:25:00,60.7,57.7,29.69,West,279,0.0,1.0,90,0.00,,,0.54,Wunderground v.1.15,2013-06-11 16:25:00,
2013-06-11 12:35:00,60.8,57.5,29.69,West,278,1.0,4.0,89,0.00,,,0.54,Wunderground v.1.15,2013-06-11 16:35:00,
2013-06-11 12:45:00,60.6,57.3,29.69,West,279,2.0,2.0,89,0.00,,,0.54,Wunderground v.1.15,2013-06-11 16:45:00,
2013-06-11 12:55:00,60.9,57.6,29.69,West,278,0.0,1.0,89,0.00,,,0.54,Wunderground v.1.15,2013-06-11 16:55:00,
2013-06-11 13:00:00,60.9,57.6,29.69,West,278,0.0,1.0,89,0.00,,,0.54,Wunderground v.1.15,2013-06-11 17:00:00,
2013-06-11 13:05:00,61.1,57.8,29.69,West,278,0.0,1.0,89,0.00,,,0.54,Wunderground v.1.15,2013-06-11 17:05:00,
2013-06-11 13:15:00,61.4,58.1,29.68,West,278,0.0,0.0,89,0.00,,,0.54,Wunderground v.1.15,2013-06-11 17:15:00,
2013-06-11 13:25:00,61.9,58.3,29.68,West,278,0.0,1.0,88,0.00,,,0.54,Wunderground v.1.15,2013-06-11 17:25:00,
2013-06-11 13:35:00,61.9,58.3,29.68,West,278,1.0,1.0,88,0.00,,,0.54,Wunderground v.1.15,2013-06-11 17:35:00,
2013-06-11 13:40:00,61.9,58.3,29.68,West,278,1.0,4.0,88,0.00,,,0.54,Wunderground v.1.15,2013-06-11 17:40:00,
2013-06-11 13:50:00,62.1,58.5,29.67,West,280,1.0,1.0,88,0.00,,,0.54,Wunderground v.1.15,2013-06-11 17:50:00,
2013-06-11 13:55:00,62.5,58.9,29.67,West,280,0.0,1.0,88,0.00,,,0.54,Wunderground v.1.15,2013-06-11 17:55:00,
2013-06-11 14:05:00,63.1,59.2,29.67,West,280,0.0,0.0,87,0.00,,,0.54,Wunderground v.1.15,2013-06-11 18:05:00,
2013-06-11 14:10:00,63.0,58.4,29.66,West,280,1.0,1.0,85,0.00,,,0.54,Wunderground v.1.15,2013-06-11 18:10:00,
2013-06-11 14:20:00,63.1,58.8,29.66,West,280,0.0,0.0,86,0.00,,,0.54,Wunderground v.1.15,2013-06-11 18:20:00,
2013-06-11 14:30:00,63.6,59.3,29.67,West,280,0.0,1.0,86,0.00,,,0.54,Wunderground v.1.15,2013-06-11 18:30:00,
2013-06-11 14:35:00,63.7,59.1,29.67,West,280,0.0,1.0,85,0.00,,,0.54,Wunderground v.1.15,2013-06-11 18:35:00,
2013-06-11 14:45:00,63.8,59.2,29.66,West,280,0.0,1.0,85,0.00,,,0.54,Wunderground v.1.15,2013-06-11 18:45:00,
2013-06-11 14:55:00,63.8,59.5,29.66,WNW,284,0.0,0.0,86,0.00,,,0.54,Wunderground v.1.15,2013-06-11 18:55:00,
2013-06-11 15:00:00,64.0,59.4,29.66,WNW,284,0.0,0.0,85,0.00,,,0.54,Wunderground v.1.15,2013-06-11 19:00:00,
2013-06-11 15:10:00,64.3,59.7,29.65,WNW,284,0.0,0.0,85,0.00,,,0.54,Wunderground v.1.15,2013-06-11 19:10:00,
2013-06-11 15:20:00,64.5,59.9,29.64,WNW,284,0.0,0.0,85,0.00,,,0.54,Wunderground v.1.15,2013-06-11 19:20:00,
2013-06-11 15:30:00,64.2,59.3,29.64,WNW,284,0.0,0.0,84,0.00,,,0.54,Wunderground v.1.15,2013-06-11 19:30:00,
2013-06-11 15:35:00,64.1,59.2,29.64,WNW,284,0.0,0.0,84,0.00,,,0.54,Wunderground v.1.15,2013-06-11 19:35:00,
2013-06-11 15:45:00,64.3,59.4,29.63,WNW,284,0.0,1.0,84,0.00,,,0.54,Wunderground v.1.15,2013-06-11 19:45:00,
2013-06-11 15:55:00,64.6,60.0,29.63,WNW,284,0.0,0.0,85,0.00,,,0.54,Wunderground v.1.15,2013-06-11 19:55:00,
2013-06-11 16:00:00,64.6,59.7,29.63,WNW,284,0.0,0.0,84,0.00,,,0.54,Wunderground v.1.15,2013-06-11 20:00:00,
2013-06-11 16:05:00,64.7,59.8,29.63,WNW,284,0.0,0.0,84,0.00,,,0.54,Wunderground v.1.15,2013-06-11 20:05:00,
2013-06-11 16:15:00,64.7,59.4,29.63,WNW,283,0.0,0.0,83,0.00,,,0.54,Wunderground v.1.15,2013-06-11 20:15:00,
2013-06-11 16:20:00,64.7,59.4,29.63,WNW,283,0.0,0.0,83,0.00,,,0.54,Wunderground v.1.15,2013-06-11 20:20:00,
2013-06-11 16:30:00,64.7,59.8,29.62,WNW,283,0.0,1.0,84,0.00,,,0.54,Wunderground v.1.15,2013-06-11 20:30:00,
2013-06-11 16:35:00,64.7,59.4,29.62,WSW,253,0.0,1.0,83,0.00,,,0.54,Wunderground v.1.15,2013-06-11 20:35:00,
2013-06-11 16:45:00,64.7,59.4,29.61,WSW,253,0.0,0.0,83,0.00,,,0.54,Wunderground v.1.15,2013-06-11 20:45:00,